When you browse on this site, cookies collect data to enhance your experience and personalize the content and advertising you see.
Visit our Privacy Policy to learn more. By continuing to use the site, you agree to this use of cookies and data.
  • In Romania
  • List of Countries
  • For 7 days
  • Water Temperature
  • Satellite Maps
  • Weather Map
  • Weather Widgets
  • user-avatar
    Login

    Hourly Weather Kokkosalma

    Today, 20 May, Monday

    Time Temperature Precipitation Wind Pressure Humidity
    00:00 +3°C° 0 mm 2 mps 754 mmHg 68%
    01:00 +2°C° 0 mm 2 mps 755 mmHg 71%
    02:00 +3°C° 0 mm 1 mps 755 mmHg 73%
    03:00 +3°C° 0 mm 1 mps 755 mmHg 70%
    04:00 +4°C° 0 mm 1 mps 755 mmHg 67%
    05:00 +5°C° 0 mm 1 mps 755 mmHg 65%
    06:00 +6°C° 0 mm 1 mps 755 mmHg 61%
    07:00 +7°C° 0 mm 1 mps 755 mmHg 57%
    08:00 +7°C° 0 mm 1 mps 755 mmHg 54%
    09:00 +8°C° 0 mm 1 mps 755 mmHg 51%
    10:00 +9°C° 0 mm 1 mps 755 mmHg 48%
    11:00 +9°C° 0 mm 0 mps 755 mmHg 45%
    12:00 +10°C° 0 mm 0 mps 754 mmHg 43%
    13:00 +12°C° 0 mm 0 mps 754 mmHg 40%
    14:00 +13°C° 0 mm 0 mps 754 mmHg 37%
    15:00 +13°C° 0 mm 0 mps 754 mmHg 39%
    16:00 +13°C° 0 mm 0 mps 753 mmHg 40%
    17:00 +13°C° 0 mm 0 mps 753 mmHg 41%
    18:00 +13°C° 0 mm 1 mps 753 mmHg 47%
    19:00 +12°C° 0 mm 1 mps 753 mmHg 54%
    20:00 +11°C° 0 mm 1 mps 752 mmHg 61%
    21:00 +10°C° 0.1 mm 1 mps 752 mmHg 64%
    22:00 +9°C° 0.1 mm 1 mps 752 mmHg 68%
    23:00 +8°C° 0.1 mm 0 mps 752 mmHg 72%

    Tomorrow, 21 May, Tuesday

    Time Temperature Precipitation Wind Pressure Humidity
    00:00 +9°C° 0.1 mm 1 mps 752 mmHg 73%
    01:00 +9°C° 0.1 mm 1 mps 752 mmHg 74%
    02:00 +9°C° 0.1 mm 1 mps 752 mmHg 75%
    03:00 +8°C° 0.1 mm 1 mps 751 mmHg 78%
    04:00 +8°C° 0.1 mm 1 mps 751 mmHg 80%
    05:00 +8°C° 0.1 mm 1 mps 751 mmHg 82%
    06:00 +8°C° 0.1 mm 2 mps 750 mmHg 83%
    07:00 +8°C° 0.1 mm 2 mps 750 mmHg 83%
    08:00 +8°C° 0.1 mm 2 mps 750 mmHg 83%
    09:00 +9°C° 0 mm 2 mps 750 mmHg 81%
    10:00 +10°C° 0 mm 2 mps 750 mmHg 79%
    11:00 +12°C° 0 mm 2 mps 750 mmHg 77%
    12:00 +13°C° 0 mm 2 mps 749 mmHg 72%
    13:00 +14°C° 0 mm 2 mps 749 mmHg 67%
    14:00 +15°C° 0 mm 2 mps 749 mmHg 62%
    15:00 +16°C° 0 mm 2 mps 749 mmHg 63%
    16:00 +16°C° 0 mm 1 mps 748 mmHg 63%
    17:00 +16°C° 0 mm 1 mps 748 mmHg 64%
    18:00 +15°C° 0 mm 1 mps 748 mmHg 68%
    19:00 +14°C° 0 mm 1 mps 748 mmHg 73%
    20:00 +13°C° 0 mm 1 mps 748 mmHg 77%
    21:00 +12°C° 0 mm 1 mps 747 mmHg 81%
    22:00 +11°C° 0 mm 1 mps 747 mmHg 86%
    23:00 +10°C° 0 mm 1 mps 747 mmHg 90%

    Day after tomorrow, 22 May, Wednesday

    Time Temperature Precipitation Wind Pressure Humidity
    00:00 +9°C° 0 mm 1 mps 747 mmHg 91%
    01:00 +9°C° 0 mm 1 mps 746 mmHg 93%
    02:00 +8°C° 0 mm 1 mps 746 mmHg 94%
    03:00 +9°C° 0 mm 1 mps 746 mmHg 89%
    04:00 +10°C° 0 mm 1 mps 746 mmHg 85%
    05:00 +11°C° 0 mm 1 mps 746 mmHg 80%
    06:00 +13°C° 0 mm 1 mps 745 mmHg 73%
    07:00 +15°C° 0 mm 1 mps 745 mmHg 66%
    08:00 +18°C° 0 mm 1 mps 745 mmHg 58%
    09:00 +18°C° 0.1 mm 1 mps 745 mmHg 59%
    10:00 +18°C° 0.1 mm 1 mps 745 mmHg 59%
    11:00 +18°C° 0.1 mm 1 mps 745 mmHg 59%
    12:00 +18°C° 0 mm 1 mps 745 mmHg 58%
    13:00 +17°C° 0 mm 2 mps 744 mmHg 58%
    14:00 +17°C° 0 mm 2 mps 744 mmHg 57%
    15:00 +16°C° 0 mm 3 mps 744 mmHg 58%
    16:00 +14°C° 0 mm 3 mps 744 mmHg 60%
    17:00 +13°C° 0 mm 3 mps 744 mmHg 61%
    18:00 +12°C° 0 mm 3 mps 744 mmHg 60%
    19:00 +11°C° 0 mm 4 mps 744 mmHg 60%
    20:00 +10°C° 0 mm 4 mps 745 mmHg 59%
    21:00 +8°C° 0 mm 4 mps 745 mmHg 61%
    22:00 +6°C° 0 mm 5 mps 746 mmHg 64%
    23:00 +3°C° 0 mm 5 mps 746 mmHg 67%

    23 May, Thursday

    Time Temperature Precipitation Wind Pressure Humidity
    00:00 +2°C° 0 mm 5 mps 746 mmHg 67%
    01:00 +1°C° 0 mm 5 mps 747 mmHg 67%
    02:00 0°C° 0 mm 5 mps 747 mmHg 67%
    03:00 0°C° 0 mm 5 mps 747 mmHg 61%
    04:00 0°C° 0 mm 5 mps 748 mmHg 56%
    05:00 0°C° 0 mm 5 mps 748 mmHg 50%
    06:00 +1°C° 0 mm 5 mps 748 mmHg 47%
    07:00 +2°C° 0 mm 5 mps 748 mmHg 43%
    08:00 +4°C° 0 mm 4 mps 748 mmHg 40%
    09:00 +5°C° 0 mm 4 mps 749 mmHg 38%
    10:00 +6°C° 0 mm 4 mps 749 mmHg 37%
    11:00 +9°C° 0 mm 3 mps 749 mmHg 35%
    12:00 +9°C° 0 mm 3 mps 749 mmHg 34%
    13:00 +10°C° 0 mm 3 mps 748 mmHg 34%
    14:00 +10°C° 0 mm 3 mps 748 mmHg 33%
    15:00 +10°C° 0 mm 3 mps 748 mmHg 33%
    16:00 +10°C° 0 mm 3 mps 748 mmHg 34%
    17:00 +10°C° 0 mm 3 mps 748 mmHg 35%
    18:00 +8°C° 0 mm 3 mps 748 mmHg 39%
    19:00 +7°C° 0 mm 3 mps 748 mmHg 44%
    20:00 +5°C° 0 mm 3 mps 749 mmHg 48%
    21:00 +4°C° 0 mm 3 mps 749 mmHg 54%
    22:00 +3°C° 0 mm 3 mps 749 mmHg 59%
    23:00 +1°C° 0 mm 3 mps 749 mmHg 64%

    24 May, Friday

    Time Temperature Precipitation Wind Pressure Humidity
    00:00 +2°C° 0 mm 2 mps 750 mmHg 67%
    01:00 +1°C° 0 mm 2 mps 750 mmHg 70%
    02:00 -1°C° 0 mm 2 mps 750 mmHg 73%
    03:00 +1°C° 0 mm 2 mps 750 mmHg 68%
    04:00 +2°C° 0 mm 2 mps 750 mmHg 62%
    05:00 +2°C° 0 mm 3 mps 750 mmHg 57%
    06:00 +4°C° 0 mm 2 mps 750 mmHg 51%
    07:00 +6°C° 0 mm 2 mps 750 mmHg 45%
    08:00 +7°C° 0 mm 2 mps 750 mmHg 39%
    09:00 +8°C° 0 mm 2 mps 750 mmHg 36%
    10:00 +10°C° 0 mm 2 mps 750 mmHg 32%
    11:00 +12°C° 0 mm 2 mps 750 mmHg 29%
    12:00 +12°C° 0 mm 2 mps 750 mmHg 28%
    13:00 +13°C° 0 mm 2 mps 749 mmHg 26%
    14:00 +14°C° 0 mm 2 mps 749 mmHg 25%
    15:00 +14°C° 0 mm 2 mps 749 mmHg 26%
    16:00 +13°C° 0 mm 2 mps 749 mmHg 26%
    17:00 +13°C° 0 mm 2 mps 749 mmHg 27%
    18:00 +12°C° 0 mm 2 mps 749 mmHg 33%
    19:00 +10°C° 0 mm 2 mps 749 mmHg 38%
    20:00 +8°C° 0 mm 2 mps 749 mmHg 44%
    21:00 +8°C° 0 mm 3 mps 749 mmHg 46%
    22:00 +7°C° 0 mm 3 mps 749 mmHg 48%
    23:00 +5°C° 0 mm 4 mps 749 mmHg 50%

    25 May, Saturday

    Time Temperature Precipitation Wind Pressure Humidity
    00:00 +5°C° 0 mm 4 mps 749 mmHg 51%
    01:00 +5°C° 0 mm 4 mps 749 mmHg 52%
    02:00 +4°C° 0 mm 4 mps 749 mmHg 53%
    03:00 +5°C° 0 mm 4 mps 749 mmHg 53%
    04:00 +5°C° 0 mm 4 mps 749 mmHg 52%
    05:00 +5°C° 0 mm 4 mps 749 mmHg 52%
    06:00 +7°C° 0 mm 4 mps 749 mmHg 49%
    07:00 +8°C° 0 mm 4 mps 749 mmHg 46%
    08:00 +10°C° 0 mm 4 mps 749 mmHg 44%
    09:00 +11°C° 0 mm 4 mps 748 mmHg 42%
    10:00 +12°C° 0 mm 5 mps 748 mmHg 40%
    11:00 +13°C° 0 mm 5 mps 748 mmHg 39%
    12:00 +12°C° 0 mm 5 mps 748 mmHg 43%
    13:00 +12°C° 0 mm 5 mps 748 mmHg 46%
    14:00 +10°C° 0 mm 5 mps 747 mmHg 50%
    15:00 +9°C° 0.1 mm 5 mps 747 mmHg 54%
    16:00 +9°C° 0.1 mm 5 mps 747 mmHg 58%
    17:00 +8°C° 0.1 mm 5 mps 747 mmHg 62%
    18:00 +8°C° 0 mm 5 mps 747 mmHg 64%
    19:00 +8°C° 0 mm 4 mps 746 mmHg 66%
    20:00 +8°C° 0 mm 4 mps 746 mmHg 69%
    21:00 +7°C° 0 mm 4 mps 746 mmHg 71%
    22:00 +7°C° 0 mm 4 mps 746 mmHg 73%
    23:00 +7°C° 0 mm 4 mps 745 mmHg 75%
    Show more